Location: ScottNC Observatory
(36.0892°N, 80.4832°W)
Time: 02:35:58
(UTC-04:00)

ITUPSAT 1 - Visible Passes

Search period start: 25 April 2019 00:00
Search period end: 05 May 2019 00:00
Orbit: 702 x 713 km, 98.6° (Epoch: 24 April)

Date Brightness Start Highest point End Pass type
(mag) Time Alt. Az. Time Alt. Az. Time Alt. Az.
25 Apr ? 04:31:09 10° ESE 04:34:50 23° ENE 04:38:34 10° NNE visible
26 Apr ? 05:14:13 10° SSE 05:18:55 66° ENE 05:23:39 10° N visible
27 Apr ? 04:22:33 10° ESE 04:25:49 19° ENE 04:29:05 10° NNE visible
27 Apr ? 05:58:48 10° S 06:03:16 40° W 06:07:46 10° NNW visible
28 Apr ? 05:05:13 10° SSE 05:09:49 52° ENE 05:14:27 10° N visible
29 Apr ? 04:14:06 10° E 04:16:47 15° ENE 04:19:28 10° NNE visible
29 Apr ? 05:49:29 10° S 05:54:06 52° W 05:58:46 10° NNW visible
30 Apr ? 04:56:17 10° SE 05:00:44 41° ENE 05:05:13 10° N visible
01 May ? 04:05:59 10° E 04:07:46 12° ENE 04:09:34 10° NE visible
01 May ? 05:40:15 10° S 05:44:57 66° WSW 05:49:43 10° NNW visible
02 May ? 04:47:25 10° SE 04:51:39 33° ENE 04:55:54 10° N visible
03 May ? 05:31:04 10° SSE 05:35:49 84° WSW 05:40:37 10° NNW visible
04 May ? 04:38:39 10° SE 04:42:35 27° ENE 04:46:34 10° NNE visible
